Overview Statistics Trail Chart Weather Telemetry Raw packets
 

This is the latest recevied weather packets stored in our database for station/object K4KMJ. If no packets are shown the sender has not sent any weather packets the latest 10 day(s).

<< 42 43 44 45 46 47 48 >>
Time Temp. Humidity Pressure Rain* Wind** Luminosity Snow
1788384491 28.89° C 93% 1016.1 hPa 0 mm - 58 W/m² -
1788384203 28.89° C 93% 1016 hPa 0 mm - 61 W/m² -
1788383884 28.89° C 93% 1016.1 hPa 0 mm - 69 W/m² -
1788383580 28.89° C 93% 1016 hPa 0 mm - 73 W/m² -
1788383280 28.89° C 93% 1016.1 hPa 0 mm - 69 W/m² -
1788382975 28.89° C 92% 1016.2 hPa 0 mm - 66 W/m² -
1788382673 28.89° C 92% 1016 hPa 0 mm - 66 W/m² -
1788382368 28.89° C 92% 1016.3 hPa 0 mm - 80 W/m² -
1788382063 28.89° C 92% 1015.9 hPa 0 mm - 102 W/m² -
1788381759 28.89° C 92% 1015.9 hPa 0 mm - 134 W/m² -
1788381459 28.89° C 92% 1015.6 hPa 0 mm - 159 W/m² -
1788381153 28.89° C 92% 1016 hPa 0 mm - 176 W/m² -
1788380848 28.89° C 91% 1016 hPa 0 mm - 194 W/m² -
1788380545 28.89° C 91% 1016 hPa 0 mm - 215 W/m² -
1788380241 28.89° C 92% 1016.3 hPa 0 mm - 220 W/m² -
1788379940 28.89° C 92% 1016.2 hPa 0 mm - 207 W/m² -
1788379635 28.89° C 93% 1016 hPa 0 mm - 189 W/m² -
1788379331 28.89° C 93% 1016.3 hPa 0 mm - 192 W/m² -
1788379026 28.89° C 93% 1016.3 hPa 0 mm - 194 W/m² -
1788378725 28.89° C 93% 1016.5 hPa 0 mm - 195 W/m² -
1788378425 28.89° C 93% 1016.6 hPa 0 mm - 197 W/m² -
1788378120 28.89° C 93% 1016.5 hPa 0 mm - 199 W/m² -
1788377815 28.89° C 94% 1016.4 hPa 0 mm - 199 W/m² -
1788377511 28.33° C 94% 1016.5 hPa 0 mm - 196 W/m² -
1788377209 28.89° C 94% 1016.5 hPa 0 mm - 191 W/m² -

* Rain latest hour (hover to see other rain measurements)
** Current wind speed in m/s (hover to see current wind gust speed)